www.pogodaiklimat.ru

Погода и климат >> Архив погоды >> Россия >> Томская область >> Александровское


АРХИВ ПОГОДЫ в Александровском

Время (UTC), дата Ветер
(напр.,м/с)
 
Видим.   Явления Облачность Т
(С)
Тd
(С)
f
(%)
Тe
(С)
Тes
(С)
Комфортность P
(гПа)
Po
(гПа)
Тmin
(С)
Tmax
(С)
R
(мм)
R24
(мм)
S
(см)
21 17.08 штиль 0 50 км 10/0
[Ci fib]
+13.6 +12.7 94 +13 +13 1014.6 1008.8
00 18.08 В 1 20 км местами туман поземный 10/0
[Ac trans Ci fib]
+12.2 +11.4 95 +12 +12 1014.5 1008.7 +12.0
03 18.08 Ю 2 20 км 10/3 1000 м
[Sc Ac trans Ci fib]
+20.9 +13.9 64 +24 +26 комфорт 1013.9 1008.2
06 18.08 ЮВ 2 20 км 10/3 1000 м
[Sc Ac As]
+22.9 +15.3 62 +27 +29 душно 1012.9 1007.3
09 18.08 Ю 3 20 км слаб. ливневой дождь 10/5 1000 м
[Cb cap Ac As]
+23.6 +12.9 51 +26 +27 жарко 1011.9 1006.3
12 18.08 Ю 3 20 км {ливн. осадки} 10/10 1500 м
[Cb cap]
+18.2 +16.4 89 +19 +19 1012.2 1006.5 +24.9 6
15 18.08 З 2 20 км {ливн. осадки} 10/10 1300 м
[Cb cap]
+16.9 +15.5 91 +17 +17 1012.9 1007.2
18 18.08 СЗ 3
{10}
50 км {ливн. осадки} 9/9 1000 м
[Cb cap]
+15.5 +13.1 86 +15 +15 1014.9 1009.1
21 18.08 СЗ 3 50 км 8/8 800 м
[Cb cap]
+14.6 +12.2 86 +14 +14 1015.4 1009.6
00 19.08 З 1 20 км 9/9 700 м
[Cb cap]
+12.6 +10.8 89 +13 +13 1016.7 1010.9 +12.6 0.3
03 19.08 З 2 10 км слаб. ливневой дождь 10/10 480 м
[Cb cap]
+13.1 +10.9 86 +12 +12 1016.9 1011.1 +12.5
06 19.08 З 3 20 км в посл. час ливневой дождь 9/9 1000 м
[Cb cap Ac trans]
+15.0 +11.7 81 +14 +15 1016.5 1010.7
09 19.08 СЗ 4-10
{11}
20 км слаб. ливневой дождь 10/10 800 м
[Cb cap]
+13.6 +9.9 78 +12 +12 1017.1 1011.3
12 19.08 З 3
{10}
10 км слаб. ливневой дождь 10/10 400 м
[Cb cap]
+11.1 +9.6 90 +9 +9 1016.7 1010.8 +15.7 2
15 19.08 З 1 2000 м ливневой дождь 10/10 360 м
[Cb cap]
+10.3 +9.3 94 +10 +10 1015.3 1009.4
18 19.08 ЮЗ 1 13 км слаб. ливневой дождь 10/10 270 м
[Cb cap]
+10.1 +9.2 94 +10 +10 1013.8 1007.9
21 19.08 СВ 2 28 км слаб. ливневой дождь 10/10 270 м
[Cb cap]
+10.3 +9.5 95 +9 +9 1013.4 1007.5
00 20.08 СВ 3 20 км {ливн. осадки} 10/10 240 м
[Cb cap]
+10.0 +9.1 94 +8 +8 1015.1 1009.2 +9.9 14
03 20.08 С 3 10 км слаб. морось 10/10 180 м
[St]
+10.9 +9.5 91 +9 +9 1016.6 1010.7 +9.6
06 20.08 С 3 20 км {ливн. осадки, морось} 10/10 420 м
[St]
+12.5 +9.0 79 +11 +11 1017.6 1011.7
09 20.08 СЗ 1 20 км 8/4 600 м
[Sc Ac trans]
+16.4 +9.1 62 +17 +20 1017.7 1011.9
12 20.08 СЗ 1 20 км 5/4 600 м
[Sc Ci fib]
+17.9 +10.7 63 +19 +20 1017.1 1011.3 +18.5 0.0
15 20.08 СЗ 2 20 км слаб. дождь 9/9 840 м
[Sc]
+14.9 +12.4 85 +15 +15 1017.4 1011.6
18 20.08 З 1 50 км местами туман поземный {дождь} 1/1 1000 м
[Sc]
+11.9 +11.0 94 +12 +12 1016.4 1010.5
21 20.08 З 1 50 км 3/3 1000 м
[Sc]
+11.8 +11.0 95 +12 +12 1015.5 1009.6
00 21.08 СЗ 3 1000 м в посл. час дождь 10/10 150 м
[St]
+12.9 +12.1 95 +11 +11 1014.4 1008.6 +10.8 0.6
03 21.08 СЗ 3 10 км слаб. ливневой дождь 10/10 180 м
[Cb cap]
+13.4 +12.6 95 +12 +12 1013.4 1007.6
06 21.08 С 2 20 км в посл. час ливневой дождь 10/9 300 м
[Cb cap Ci sp]
+18.1 +14.8 81 +19 +19 1012.1 1006.4
09 21.08 В 3 20 км 10/5 300 м
[Cb cap Ac trans Ci sp]
+20.6 +15.3 72 +24 +25 комфорт 1012.6 1006.9
12 21.08 В 2 20 км 6/3 300 м
[Cb cap Ci fib]
+19.8 +13.0 65 +22 +23 комфорт 1013.5 1007.8 +21.4 8
15 21.08 штиль 0 20 км местами туман поземный 6/5 1000 м
[Cb cap Ci fib]
+13.1 +12.1 94 +13 +13 1014.7 1008.9
18 21.08 штиль 0 22 км слаб. ливневой дождь 9/9 480 м
[Cb cap]
+12.1 +11.3 95 +11 +11 1014.4 1008.5
21 21.08 ЮЗ 1 8000 м дымка {ливн. осадки} 8/8 300 м
[Cb cap]
+11.1 +10.3 95 +11 +11 1014.0 1008.1
00 22.08 ЮЗ 1 10 км дымка {ливн. осадки} 4/1 1000 м
[Sc Ci fib]
+11.4 +10.8 96 +11 +11 1014.0 1008.1 +10.3 0.0
03 22.08 СЗ 1 500 м туман ?/? +14.5 +13.8 96 +15 +15 1013.6 1007.8
06 22.08 СЗ 3 20 км {туман} 9/5 300 м
[St Ci fib]
+18.6 +14.9 79 +20 +23 1013.1 1007.4
09 22.08 З 2 20 км 10/1 300 м
[St Ci fib]
+20.1 +15.7 76 +23 +28 комфорт 1012.9 1007.2
12 22.08 СЗ 2 20 км 5/1 600 м
[Cu med, cong Ci fib]
+22.2 +15.9 67 +26 +27 душно 1011.9 1006.3 +22.3
15 22.08 З 1 20 км {гроза} 8/3 300 м
[Cb cap Ci fib]
+16.1 +13.6 85 +17 +17 1012.4 1006.6
18 22.08 ЮЗ 1 50 км местами туман поземный {гроза} 3/0
[Ci fib]
+12.6 +11.6 94 +13 +13 1012.4 1006.6
21 22.08 З 1 10 км дымка ясно +12.1 +11.4 95 +12 +12 1011.8 1006.0
00 23.08 З 1 2000 м дымка 4/4 300 м
[St]
+11.6 +10.8 95 +11 +11 1012.3 1006.4 +10.6
03 23.08 СЗ 2 10 км дымка 9/9 90 м
[St]
+14.9 +14.0 94 +15 +15 1012.7 1006.9
06 23.08 С 2 20 км 5/4 600 м
[Cb cap Ci fib]
+20.5 +14.7 69 +24 +29 комфорт 1012.8 1007.1
09 23.08 СЗ 2 20 км 5/3 600 м
[Cu med, cong Ci fib]
+22.1 +13.2 57 +25 +29 комфорт 1012.5 1006.8
12 23.08 СЗ 1 20 км 5/0
[Ci fib]
+22.4 +10.0 45 +24 +26 комфорт 1011.8 1006.1 +23.1
15 23.08 ЮВ 1 20 км местами туман поземный 8/0
[Ac As Ci fib]
+14.1 +12.9 92 +14 +14 1011.7 1005.9
18 23.08 Ю 2 50 км 10/0
[Ac As Ci fib]
+15.3 +10.9 75 +15 +15 1010.4 1004.6
21 23.08 Ю 2 50 км 8/0
[Ac As Ci fib]
+14.0 +10.6 80 +13 +13 1007.8 1002.0
00 24.08 Ю 3 20 км 10/3 1000 м
[Sc Ac As Ci sp]
+13.9 +11.4 85 +13 +13 1005.8 1000.0 +12.4
03 24.08 Ю 3 20 км {ливн. осадки} 9/9 600 м
[Cb cap]
+15.4 +14.1 92 +15 +15 1004.8 999.1
06 24.08 ЮЗ 3 20 км {ливн. осадки} 8/8 1000 м
[Cb cap]
+18.7 +14.0 74 +20 +21 1004.4 998.7
09 24.08 ЮЗ 6-10
{10}
20 км 4/4 600 м
[Cb cap]
+21.2 +11.2 53 +23 +25 комфорт 1003.7 998.1
12 24.08 ЮЗ 6-11
{14}
20 км слаб. ливневой дождь 9/9 720 м
[Cb cap]
+17.1 +9.7 62 +16 +16 1004.9 999.2 +21.7 2
15 24.08 Ю 3
{11}
20 км {ливн. осадки} 8/8 720 м
[Cb cap]
+14.2 +10.3 77 +13 +13 1004.6 998.9

 

Местоположение метеостанции Александровское (Томская область, Россия): широта 60.43 долгота 77.87 высота над уровнем моря 49 м.

В архиве по умолчанию представлена погода в Александровском за последнюю неделю. Архивные данные за месяц целиком и за предыдущие месяцы, начиная с января 2011 года, Вы можете получить, выбрав интересующий диапазон дат из раскрывающегося списка и нажав кнопку "Ввод!".


*Определитесь, кто Вы:
робот инопланетянин человек

Внимание! Время в таблицах - всемирное. Для получения местного времени необходимо прибавить поправку, которая равна 7 ч.

Смотрите также архив погоды в соседних городах и на ближайших метеорологических станциях:

Погода в Ваховске (Ханты-Мансийский АО, Россия) (76 км)
Погода в Нижневартовске (Ханты-Мансийский АО, Россия) (88 км)
Погода в Прохоркино (Томская область, Россия) (135 км)
Погода в Среднем Васюгане (Томская область, Россия) (136 км)
Погода в Ларьяке (Ханты-Мансийский АО, Россия) (149 км)
Погода в Радужном (Ханты-Мансийский АО, Россия) (193 км)
Погода в Угуте (Ханты-Мансийский АО, Россия) (211 км)
Погода в Новом Васюгане (Томская область, Россия) (219 км)
Погода в Каргасоке (Томская область, Россия) (225 км)
Погода в Напасе (Томская область, Россия) (235 км)

Пояснения к столбцам:

Ветер - указаны скорость ветра в м/с - средняя за 10 мин, порывы в срок и между сроками (в фигурных скобках) и направление, откуда дует ветер: С - северный, СВ - северо-восточный, В - восточный, ЮВ - юго-восточный, Ю - южный, ЮЗ - юго-западный, З - западный, СЗ - северо-западный.
Видимость - горизонтальная дальность видимости в метрах или километрах. При видимости от 1 до 10 км при отсутствии осадков обычно наблюдается дымка, при ухудшении видимости до 1 км и менее - туман. В сухую погоду видимость может ухудшаться дымом, пылью или мглою.
Явления - указаны атмосферные явления, наблюдавшиеся в срок или в последний час перед сроком; фигурными скобками обозначены явления, наблюдавшиеся между сроками (за 1-3 часа до срока); квадратными скобками обозначены град или гололедные отложения с указанием их диаметра в мм.
Облачность - указаны через наклонную черту общая и нижняя облачность в баллах и высота нижней границы облаков в метрах; квадратными скобками обозначены формы облаков: Ci - перистые, Cs - перисто-слоистые, Cc - перисто-кучевые, Ac - высококучевые, As - высокослоистые, Sc - слоисто-кучевые, Ns - слоисто-дождевые, Cu - кучевые, Cb - кучево-дождевые. Подробнее классификацию облаков см. в Атласе облаков (PDF).
T - Температура воздуха - температура, измеренная на высоте 2 м над землей.
Td - Температура точки росы - температура, при понижении до которой содержащийся в воздухе водяной пар достигнет насыщения.
f - Относительная влажность воздуха - влажноcть воздуха, измеренная на высоте 2 м над землей.
Te - Эффективная температура - температура, которую ощущает одетый по сезону человек в тени. Характеристика душности погоды. При расчете учитывается влияние влажности воздуха и скорости ветра на теплоощущения человека.
Tes - Эффективная температура на солнце - температура, которую ощущает человек, с поправкой на солнечный нагрев. Характеристика знойности погоды. Зависит от высоты солнца над горизонтом, облачности и скорости ветра. Ночью, в пасмурную погоду, а также при ветре 12 м/с и более поправка равна нулю.
P - Атмосферное давление - приведенное к уровню моря атмосферное давление.
Po - Атмосферное давление - измеренное на уровне метеостанции атмосферное давление.
Tmin - Минимальная температура - минимум температуры воздуха на высоте 2 м над землей.
Tmax - Максимальная температура - максимум температуры воздуха на высоте 2 м над землей.
R - Количество осадков - Количество выпавших осадков за период времени, мм. При наведении курсора мыши на число - период времени, за который выпало указанное количество осадков.
R24 - Количество осадков - Количество выпавших осадков за 24 часа, мм.
S - Снежный покров - Высота снежного покрова, см. При наведении курсора мыши на число - состояние снежного покрова и степень покрытия местности в баллах.